星链-30250 (STARLINK-30250 )

导读 | 星芒AI

STARLINK-30250 是 SpaceX Starlink 卫星互联网项目中的一颗低轨卫星,属于第三代星链卫星(v1.5)。它运行在约 540 公里的轨道高度,旨在为全球用户提供高速、低延迟的互联网服务。该卫星采用先进的推进系统和激光通信技术,以提升网络性能并减少空间碎片风险。STARLINK-30250 于 2023 年发射,是 Starlink 网络扩展计划的一部分,助力实现全球覆盖和更稳定的宽带连接。

基本信息
目录编号:
57527
目录名称:
STARLINK-30250
国际标识:
2023-115G
轨道中心:
EARTH
卫星名称:
星链-30250
卫星全名:
星链-30250 (STARLINK-30250 )
卫星状态:
在轨 (已飞行863 天)
发射日期:
2023-08-08 UTC
国别 :
美国 (US)
星等 :
--
轨道信息
数据来源 国际轨道数据 AOE轨道数据
星历时间 2025-12-18T15:34:39+0800
14小时前
查看轨道信息
2025-12-14T09:00:00+0800
4天前
查看轨道信息
半长轴 6937.229km 6937.103km
偏心率 0.0001495 0.0001275
轨道倾角 43.003° 43.001°
近地点辐角 275.301° 266.140°
升交点赤经 86.891° 110.115°
平近点角 84.766° 348.451°
近地点 558.056km 558.083km
远地点 560.132km 559.853km
周期 95.838分钟 95.836分钟
每日圈数 15.025321 15.025732
详细信息
固有亮度:
5
最大亮度:
0.3
卫星平台:
Starlink v2.0 mini
覆盖范围:
全球
运营商:
太空探索技术公司
运营商所在国:
美国
制造商(研发单位):
太空探索技术公司
制造商所在国:
美国
使用方式:
暂无
卫星简介
星链(Starlink)计划是由太空探索技术公司(SpaceX)提出的一个巨型低轨卫星互联网星座项目,计划在2019年至2024年间在太空搭建由约1.2万颗卫星组成的“星链”网络,其中1584颗将部署在地球上空550千米处的近地轨道,并从2020年开始工作。该卫星仍在工作。
2D轨道图
3D轨道图
轨道高度分析图
轨道倾角分析图
轨道综合分析图
查看轨道综合分析图